sat.trackr.live / text

‹ back to catalog

STARLINK-37363

NORAD 69158 · 2026-111L

PAYLOAD ACTIVE UNKNOWN

§ Identity

Operator
Country
US
Launch date
2026-05-21
Launch site
AFETR
Launch vehicle
Mass (kg)
RCS (m²)

Purposes: comms

External: N2YO · Heavens-Above · Gunter

§ Orbital elements

Epoch: 2026-09-19T22:56:50.674848Z

Period
93.85 min
Inclination
53.1570°
Eccentricity
0.0001481
Mean motion
15.34370687 rev/d
Perigee alt
461.8 km
Apogee alt
463.8 km
Semi-major
6,840.9 km
B*
1.1157e-4
RAAN
68.3704°
Arg perigee
338.3678°
Mean anomaly
21.7262°
Rev number
1,881

§ Raw data

STARLINK-373631 69158U 26111L   26262.95614207  .00003391  00000+0  11157-3 0  99952 69158  53.1570  68.3704 0001481 338.3678  21.7262 15.34370687 18814

JSON: /api/v1/satellites/69158 · /tle

For live sub-satellite position, see the globe view (requires WebGL).

§ Visibility from observer

Set your observer location to see the next 7 days of passes ≥ 10°. The values pass through the URL so the page stays shareable.

No JS? Fill the form by hand. The geolocation button needs JavaScript.